Time,TemperatureF,DewpointF,PressureIn,WindDirection,WindDirectionDegrees,WindSpeedMPH,WindSpeedGustMPH,Humidity,HourlyPrecipIn,Conditions,Clouds,dailyrainin,SoftwareType,DateUTC
2013-09-24 00:02:00,42.3,0.0,29.88,ESE,113,0.4,1.1,0,0.00,,,0.00,WUHU216HW,2013-09-24 04:02:00,
2013-09-24 00:07:00,42.1,0.0,29.88,West,270,0.9,0.9,0,0.00,,,0.00,WUHU216HW,2013-09-24 04:07:00,
2013-09-24 00:12:00,42.1,0.0,29.88,West,270,0.4,0.9,0,0.00,,,0.00,WUHU216HW,2013-09-24 04:12:00,
2013-09-24 00:17:00,42.1,0.0,29.88,ENE,68,0.9,2.0,0,0.00,,,0.00,WUHU216HW,2013-09-24 04:17:00,
2013-09-24 00:22:00,42.1,0.0,29.88,NW,315,0.4,2.0,0,0.00,,,0.00,WUHU216HW,2013-09-24 04:22:00,
2013-09-24 00:27:00,42.3,0.0,29.88,NW,315,0.0,0.9,0,0.00,,,0.00,WUHU216HW,2013-09-24 04:27:00,
2013-09-24 00:32:00,42.3,0.0,29.88,NW,315,0.0,0.2,0,0.00,,,0.00,WUHU216HW,2013-09-24 04:32:00,
2013-09-24 00:37:00,42.1,0.0,29.88,NW,315,0.0,0.0,0,0.00,,,0.00,WUHU216HW,2013-09-24 04:37:00,
2013-09-24 00:42:00,42.1,0.0,29.88,WNW,293,0.4,1.1,0,0.00,,,0.00,WUHU216HW,2013-09-24 04:42:00,
2013-09-24 00:47:00,41.9,0.0,29.88,WNW,293,0.2,1.1,0,0.00,,,0.00,WUHU216HW,2013-09-24 04:47:00,
2013-09-24 00:52:00,41.8,0.0,29.89,WNW,293,0.0,1.1,0,0.00,,,0.00,WUHU216HW,2013-09-24 04:52:00,
2013-09-24 00:57:00,41.8,0.0,29.88,NNE,23,0.4,2.5,0,0.00,,,0.00,WUHU216HW,2013-09-24 04:57:00,
2013-09-24 01:02:00,41.8,0.0,29.88,North,0,0.0,2.5,0,0.00,,,0.00,WUHU216HW,2013-09-24 05:02:00,
2013-09-24 01:07:00,41.6,0.0,29.88,NNW,338,0.4,0.4,0,0.00,,,0.00,WUHU216HW,2013-09-24 05:07:00,
2013-09-24 01:12:00,41.8,0.0,29.88,NW,315,2.5,2.5,0,0.00,,,0.00,WUHU216HW,2013-09-24 05:12:00,
2013-09-24 01:17:00,42.1,0.0,29.88,NNW,338,0.0,2.5,0,0.00,,,0.00,WUHU216HW,2013-09-24 05:17:00,
2013-09-24 01:22:00,42.3,0.0,29.88,SW,225,0.0,2.5,0,0.00,,,0.00,WUHU216HW,2013-09-24 05:22:00,
2013-09-24 01:27:00,42.3,0.0,29.88,NNW,338,0.4,2.5,0,0.00,,,0.00,WUHU216HW,2013-09-24 05:27:00,
2013-09-24 01:32:00,42.3,0.0,29.88,North,0,0.4,2.2,0,0.00,,,0.00,WUHU216HW,2013-09-24 05:32:00,
2013-09-24 01:37:00,42.1,0.0,29.88,NE,45,0.0,2.2,0,0.00,,,0.00,WUHU216HW,2013-09-24 05:37:00,
2013-09-24 01:42:00,42.1,0.0,29.88,North,0,0.4,3.1,0,0.00,,,0.00,WUHU216HW,2013-09-24 05:42:00,
2013-09-24 01:47:00,42.1,0.0,29.88,NW,315,0.0,3.1,0,0.00,,,0.00,WUHU216HW,2013-09-24 05:47:00,
2013-09-24 01:52:00,42.1,0.0,29.88,North,0,0.4,1.8,0,0.00,,,0.00,WUHU216HW,2013-09-24 05:52:00,
2013-09-24 01:57:00,42.1,0.0,29.88,NNW,338,0.0,2.5,0,0.00,,,0.00,WUHU216HW,2013-09-24 05:57:00,
2013-09-24 02:02:00,42.1,0.0,29.88,SSW,203,0.0,2.5,0,0.00,,,0.00,WUHU216HW,2013-09-24 06:02:00,
2013-09-24 02:07:00,42.1,0.0,29.88,North,0,0.4,2.9,0,0.00,,,0.00,WUHU216HW,2013-09-24 06:07:00,
2013-09-24 02:12:00,42.1,0.0,29.88,NNE,23,0.0,2.9,0,0.00,,,0.00,WUHU216HW,2013-09-24 06:12:00,
2013-09-24 02:17:00,42.1,0.0,29.88,North,0,0.7,2.2,0,0.00,,,0.00,WUHU216HW,2013-09-24 06:17:00,
2013-09-24 02:22:00,41.8,0.0,29.88,WNW,293,2.0,2.0,0,0.00,,,0.00,WUHU216HW,2013-09-24 06:22:00,
2013-09-24 02:27:00,41.8,0.0,29.88,NNW,338,0.4,2.0,0,0.00,,,0.00,WUHU216HW,2013-09-24 06:27:00,
2013-09-24 02:32:00,41.8,0.0,29.87,WSW,248,0.4,2.0,0,0.00,,,0.00,WUHU216HW,2013-09-24 06:32:00,
2013-09-24 02:37:00,41.6,0.0,29.87,NW,315,0.0,2.0,0,0.00,,,0.00,WUHU216HW,2013-09-24 06:37:00,
2013-09-24 02:42:00,41.4,0.0,29.87,NNW,338,0.0,1.6,0,0.00,,,0.00,WUHU216HW,2013-09-24 06:42:00,
2013-09-24 02:48:00,41.0,0.0,29.87,North,0,0.2,1.1,0,0.00,,,0.00,WUHU216HW,2013-09-24 06:48:00,
2013-09-24 02:53:00,41.0,0.0,29.87,NW,315,0.0,1.1,0,0.00,,,0.00,WUHU216HW,2013-09-24 06:53:00,
2013-09-24 02:58:00,41.0,0.0,29.87,NNW,338,0.0,0.9,0,0.00,,,0.00,WUHU216HW,2013-09-24 06:58:00,
2013-09-24 03:03:00,40.9,0.0,29.87,North,0,1.1,1.1,0,0.00,,,0.00,WUHU216HW,2013-09-24 07:03:00,
2013-09-24 03:08:00,40.7,0.0,29.87,East,90,0.0,1.1,0,0.00,,,0.00,WUHU216HW,2013-09-24 07:08:00,
2013-09-24 03:13:00,40.5,0.0,29.87,NE,45,2.2,2.2,0,0.00,,,0.00,WUHU216HW,2013-09-24 07:13:00,
2013-09-24 03:18:00,40.7,0.0,29.87,NW,315,0.4,2.2,0,0.00,,,0.00,WUHU216HW,2013-09-24 07:18:00,
2013-09-24 03:23:00,40.7,0.0,29.87,NNW,338,0.4,1.1,0,0.00,,,0.00,WUHU216HW,2013-09-24 07:23:00,
2013-09-24 03:28:00,40.7,0.0,29.87,North,0,0.0,0.4,0,0.00,,,0.00,WUHU216HW,2013-09-24 07:28:00,
2013-09-24 03:33:00,40.5,0.0,29.87,ESE,113,0.7,0.7,0,0.00,,,0.00,WUHU216HW,2013-09-24 07:33:00,
2013-09-24 03:38:00,40.0,0.0,29.87,ESE,113,0.0,0.7,0,0.00,,,0.00,WUHU216HW,2013-09-24 07:38:00,
2013-09-24 03:43:00,39.8,0.0,29.87,ESE,113,0.2,0.4,0,0.00,,,0.00,WUHU216HW,2013-09-24 07:43:00,
2013-09-24 03:48:00,39.4,0.0,29.87,ESE,113,0.0,0.2,0,0.00,,,0.00,WUHU216HW,2013-09-24 07:48:00,
2013-09-24 03:53:00,39.2,0.0,29.87,ESE,113,0.0,0.0,0,0.00,,,0.00,WUHU216HW,2013-09-24 07:53:00,
2013-09-24 03:58:00,38.9,0.0,29.87,ESE,113,0.0,0.0,0,0.00,,,0.00,WUHU216HW,2013-09-24 07:58:00,
2013-09-24 04:03:00,38.7,0.0,29.87,ESE,113,0.0,0.4,0,0.00,,,0.00,WUHU216HW,2013-09-24 08:03:00,
2013-09-24 04:08:00,38.5,0.0,29.87,ESE,113,0.0,0.4,0,0.00,,,0.00,WUHU216HW,2013-09-24 08:08:00,
2013-09-24 04:13:00,38.5,0.0,29.87,ESE,113,0.0,0.0,0,0.00,,,0.00,WUHU216HW,2013-09-24 08:13:00,
2013-09-24 04:18:00,38.3,0.0,29.86,ESE,113,0.0,0.0,0,0.00,,,0.00,WUHU216HW,2013-09-24 08:18:00,
2013-09-24 04:23:00,38.2,0.0,29.86,ESE,113,0.0,0.0,0,0.00,,,0.00,WUHU216HW,2013-09-24 08:23:00,
2013-09-24 04:28:00,38.2,0.0,29.86,ESE,113,0.0,0.0,0,0.00,,,0.00,WUHU216HW,2013-09-24 08:28:00,
2013-09-24 04:33:00,38.0,0.0,29.86,ESE,113,0.0,0.0,0,0.00,,,0.00,WUHU216HW,2013-09-24 08:33:00,
2013-09-24 04:38:00,37.8,0.0,29.86,ESE,113,0.0,0.0,0,0.00,,,0.00,WUHU216HW,2013-09-24 08:38:00,
2013-09-24 04:43:00,37.6,0.0,29.87,ESE,113,0.0,0.0,0,0.00,,,0.00,WUHU216HW,2013-09-24 08:43:00,
2013-09-24 04:48:00,37.4,0.0,29.86,ESE,113,0.0,0.0,0,0.00,,,0.00,WUHU216HW,2013-09-24 08:48:00,
2013-09-24 04:53:00,37.3,0.0,29.86,ESE,113,0.0,0.0,0,0.00,,,0.00,WUHU216HW,2013-09-24 08:53:00,
2013-09-24 04:58:00,37.1,0.0,29.87,ESE,113,0.0,0.0,0,0.00,,,0.00,WUHU216HW,2013-09-24 08:58:00,
2013-09-24 05:03:00,36.9,0.0,29.87,ESE,113,0.0,0.0,0,0.00,,,0.00,WUHU216HW,2013-09-24 09:03:00,
2013-09-24 05:08:00,36.7,0.0,29.87,ESE,113,0.0,0.0,0,0.00,,,0.00,WUHU216HW,2013-09-24 09:08:00,
2013-09-24 05:13:00,36.5,0.0,29.87,ESE,113,0.0,0.0,0,0.00,,,0.00,WUHU216HW,2013-09-24 09:13:00,
2013-09-24 05:18:00,36.4,0.0,29.87,ESE,113,0.0,0.0,0,0.00,,,0.00,WUHU216HW,2013-09-24 09:18:00,
2013-09-24 05:23:00,36.2,0.0,29.87,ESE,113,0.0,0.0,0,0.00,,,0.00,WUHU216HW,2013-09-24 09:23:00,
2013-09-24 05:28:00,36.0,0.0,29.87,ESE,113,0.0,0.0,0,0.00,,,0.00,WUHU216HW,2013-09-24 09:28:00,
2013-09-24 05:33:00,36.0,0.0,29.87,ESE,113,0.0,0.0,0,0.00,,,0.00,WUHU216HW,2013-09-24 09:33:00,
2013-09-24 05:38:00,36.0,0.0,29.87,ESE,113,0.0,0.0,0,0.00,,,0.00,WUHU216HW,2013-09-24 09:38:00,
2013-09-24 05:43:00,35.8,0.0,29.87,ESE,113,0.0,0.0,0,0.00,,,0.00,WUHU216HW,2013-09-24 09:43:00,
2013-09-24 05:48:00,35.8,0.0,29.87,ESE,113,0.0,0.2,0,0.00,,,0.00,WUHU216HW,2013-09-24 09:48:00,
2013-09-24 05:53:00,35.6,0.0,29.87,ESE,113,0.0,0.2,0,0.00,,,0.00,WUHU216HW,2013-09-24 09:53:00,
2013-09-24 05:58:00,35.5,0.0,29.87,ESE,113,0.0,0.0,0,0.00,,,0.00,WUHU216HW,2013-09-24 09:58:00,
2013-09-24 06:03:00,35.5,0.0,29.87,ESE,113,0.0,0.0,0,0.00,,,0.00,WUHU216HW,2013-09-24 10:03:00,
2013-09-24 06:08:00,35.5,0.0,29.87,ESE,113,0.0,0.0,0,0.00,,,0.00,WUHU216HW,2013-09-24 10:08:00,
2013-09-24 06:13:00,35.5,0.0,29.87,ESE,113,0.0,0.0,0,0.00,,,0.00,WUHU216HW,2013-09-24 10:13:00,
2013-09-24 06:18:00,35.5,0.0,29.87,ESE,113,0.0,0.0,0,0.00,,,0.00,WUHU216HW,2013-09-24 10:18:00,
2013-09-24 06:23:00,35.5,0.0,29.87,ESE,113,0.0,0.0,0,0.00,,,0.00,WUHU216HW,2013-09-24 10:23:00,
2013-09-24 06:28:00,35.5,0.0,29.87,ESE,113,0.0,0.0,0,0.00,,,0.00,WUHU216HW,2013-09-24 10:28:00,
2013-09-24 06:33:00,35.5,0.0,29.87,ESE,113,0.0,0.0,0,0.00,,,0.00,WUHU216HW,2013-09-24 10:33:00,
2013-09-24 06:38:00,35.5,0.0,29.87,ESE,113,0.0,0.0,0,0.00,,,0.00,WUHU216HW,2013-09-24 10:38:00,
2013-09-24 06:43:00,35.3,0.0,29.87,ESE,113,0.0,0.0,0,0.00,,,0.00,WUHU216HW,2013-09-24 10:43:00,
2013-09-24 06:48:00,35.3,0.0,29.87,ESE,113,0.0,0.0,0,0.00,,,0.00,WUHU216HW,2013-09-24 10:48:00,
2013-09-24 06:53:00,35.3,0.0,29.87,ESE,113,0.0,0.0,0,0.00,,,0.00,WUHU216HW,2013-09-24 10:53:00,
2013-09-24 06:58:00,35.3,0.0,29.87,ESE,113,0.0,0.0,0,0.00,,,0.00,WUHU216HW,2013-09-24 10:58:00,
2013-09-24 07:03:00,35.3,0.0,29.86,ESE,113,0.0,0.0,0,0.00,,,0.00,WUHU216HW,2013-09-24 11:03:00,
2013-09-24 07:08:00,35.1,0.0,29.86,ESE,113,0.0,0.0,0,0.00,,,0.00,WUHU216HW,2013-09-24 11:08:00,
2013-09-24 07:13:00,35.1,0.0,29.86,ESE,113,0.0,0.0,0,0.00,,,0.00,WUHU216HW,2013-09-24 11:13:00,
2013-09-24 07:18:00,35.3,0.0,29.86,ESE,113,0.0,0.0,0,0.00,,,0.00,WUHU216HW,2013-09-24 11:18:00,
2013-09-24 07:23:00,35.3,0.0,29.86,ESE,113,0.0,0.0,0,0.00,,,0.00,WUHU216HW,2013-09-24 11:23:00,
2013-09-24 07:28:00,35.3,0.0,29.86,ESE,113,0.0,0.0,0,0.00,,,0.00,WUHU216HW,2013-09-24 11:28:00,
2013-09-24 07:33:00,35.6,0.0,29.86,ESE,113,0.4,0.4,0,0.00,,,0.00,WUHU216HW,2013-09-24 11:33:00,
2013-09-24 07:38:00,36.0,0.0,29.86,ESE,113,0.0,0.4,0,0.00,,,0.00,WUHU216HW,2013-09-24 11:38:00,
2013-09-24 07:43:00,36.4,0.0,29.86,ESE,113,0.2,0.2,0,0.00,,,0.00,WUHU216HW,2013-09-24 11:43:00,
2013-09-24 07:48:00,36.4,0.0,29.86,ESE,113,0.0,0.4,0,0.00,,,0.00,WUHU216HW,2013-09-24 11:48:00,
2013-09-24 07:53:00,36.7,0.0,29.85,ESE,113,0.0,0.4,0,0.00,,,0.00,WUHU216HW,2013-09-24 11:53:00,
2013-09-24 07:58:00,37.1,0.0,29.85,ESE,113,0.0,0.0,0,0.00,,,0.00,WUHU216HW,2013-09-24 11:58:00,
2013-09-24 08:03:00,37.6,0.0,29.85,ESE,113,0.0,0.4,0,0.00,,,0.00,WUHU216HW,2013-09-24 12:03:00,
2013-09-24 08:08:00,38.0,0.0,29.85,ESE,113,0.0,0.4,0,0.00,,,0.00,WUHU216HW,2013-09-24 12:08:00,
2013-09-24 08:13:00,38.5,0.0,29.85,SE,135,0.0,1.1,0,0.00,,,0.00,WUHU216HW,2013-09-24 12:13:00,
2013-09-24 08:18:00,39.2,0.0,29.85,SE,135,0.2,1.1,0,0.00,,,0.00,WUHU216HW,2013-09-24 12:18:00,
2013-09-24 08:23:00,39.8,0.0,29.85,SW,225,0.0,0.9,0,0.00,,,0.00,WUHU216HW,2013-09-24 12:23:00,
2013-09-24 08:28:00,40.5,0.0,29.85,SW,225,1.8,1.8,0,0.00,,,0.00,WUHU216HW,2013-09-24 12:28:00,
2013-09-24 08:33:00,41.6,0.0,29.85,SW,225,1.1,1.8,0,0.00,,,0.00,WUHU216HW,2013-09-24 12:33:00,
2013-09-24 08:38:00,42.7,0.0,29.85,SW,225,0.7,1.8,0,0.00,,,0.00,WUHU216HW,2013-09-24 12:38:00,
2013-09-24 08:43:00,44.1,0.0,29.85,SSW,203,1.3,1.8,0,0.00,,,0.00,WUHU216HW,2013-09-24 12:43:00,
2013-09-24 08:48:00,45.7,0.0,29.85,SW,225,1.8,2.9,0,0.00,,,0.00,WUHU216HW,2013-09-24 12:48:00,
2013-09-24 08:53:00,46.8,0.0,29.85,SW,225,1.8,2.9,0,0.00,,,0.00,WUHU216HW,2013-09-24 12:53:00,
2013-09-24 08:58:00,47.9,0.0,29.84,NNE,23,1.3,2.2,0,0.00,,,0.00,WUHU216HW,2013-09-24 12:58:00,
2013-09-24 09:03:00,48.8,0.0,29.84,NE,45,0.7,1.8,0,0.00,,,0.00,WUHU216HW,2013-09-24 13:03:00,
2013-09-24 09:09:00,49.7,0.0,29.84,SW,225,0.0,1.8,0,0.00,,,0.00,WUHU216HW,2013-09-24 13:09:00,
2013-09-24 09:14:00,50.2,0.0,29.84,SW,225,1.1,2.7,0,0.00,,,0.00,WUHU216HW,2013-09-24 13:14:00,
2013-09-24 09:19:00,51.5,0.0,29.84,NW,315,3.1,3.1,0,0.00,,,0.00,WUHU216HW,2013-09-24 13:19:00,
2013-09-24 09:24:00,51.5,0.0,29.83,NW,315,1.8,3.1,0,0.00,,,0.00,WUHU216HW,2013-09-24 13:24:00,
2013-09-24 09:29:00,52.2,0.0,29.83,South,180,1.8,2.2,0,0.00,,,0.00,WUHU216HW,2013-09-24 13:29:00,
2013-09-24 09:34:00,52.9,0.0,29.83,South,180,0.4,2.5,0,0.00,,,0.00,WUHU216HW,2013-09-24 13:34:00,
2013-09-24 09:39:00,53.8,0.0,29.83,WNW,293,1.3,2.5,0,0.00,,,0.00,WUHU216HW,2013-09-24 13:39:00,
2013-09-24 09:44:00,54.4,0.0,29.83,SW,225,0.7,1.8,0,0.00,,,0.00,WUHU216HW,2013-09-24 13:44:00,
2013-09-24 09:49:00,54.9,0.0,29.83,West,270,0.0,1.8,0,0.00,,,0.00,WUHU216HW,2013-09-24 13:49:00,
2013-09-24 09:54:00,55.4,0.0,29.83,SW,225,0.7,2.5,0,0.00,,,0.00,WUHU216HW,2013-09-24 13:54:00,
2013-09-24 09:59:00,56.2,0.0,29.83,NE,45,1.8,2.5,0,0.00,,,0.00,WUHU216HW,2013-09-24 13:59:00,
2013-09-24 10:04:00,56.3,0.0,29.83,West,270,2.5,2.9,0,0.00,,,0.00,WUHU216HW,2013-09-24 14:04:00,
2013-09-24 10:09:00,57.1,0.0,29.83,West,270,1.6,2.9,0,0.00,,,0.00,WUHU216HW,2013-09-24 14:09:00,
2013-09-24 10:14:00,57.2,0.0,29.82,NE,45,1.6,3.1,0,0.00,,,0.00,WUHU216HW,2013-09-24 14:14:00,
2013-09-24 10:19:00,57.1,0.0,29.82,NNE,23,0.2,3.1,0,0.00,,,0.00,WUHU216HW,2013-09-24 14:19:00,
2013-09-24 10:24:00,58.0,0.0,29.83,SW,225,3.8,3.8,0,0.00,,,0.00,WUHU216HW,2013-09-24 14:24:00,
2013-09-24 10:29:00,58.3,0.0,29.82,SW,225,4.0,4.3,0,0.00,,,0.00,WUHU216HW,2013-09-24 14:29:00,
2013-09-24 10:34:00,59.0,0.0,29.82,WSW,248,1.8,4.3,0,0.00,,,0.00,WUHU216HW,2013-09-24 14:34:00,
2013-09-24 10:39:00,59.8,0.0,29.82,SE,135,1.6,1.8,0,0.00,,,0.00,WUHU216HW,2013-09-24 14:39:00,
2013-09-24 10:44:00,60.3,0.0,29.82,WSW,248,2.2,2.2,0,0.00,,,0.00,WUHU216HW,2013-09-24 14:44:00,
2013-09-24 10:49:00,60.8,0.0,29.83,SW,225,2.5,2.5,0,0.00,,,0.00,WUHU216HW,2013-09-24 14:49:00,
2013-09-24 10:54:00,61.4,0.0,29.83,SSW,203,1.3,2.5,0,0.00,,,0.00,WUHU216HW,2013-09-24 14:54:00,
2013-09-24 10:59:00,61.7,0.0,29.83,SW,225,0.7,2.5,0,0.00,,,0.00,WUHU216HW,2013-09-24 14:59:00,
2013-09-24 11:04:00,62.1,0.0,29.82,NE,45,2.2,2.2,0,0.00,,,0.00,WUHU216HW,2013-09-24 15:04:00,
2013-09-24 11:09:00,61.9,0.0,29.82,SW,225,1.8,2.2,0,0.00,,,0.00,WUHU216HW,2013-09-24 15:09:00,
2013-09-24 11:14:00,62.3,0.0,29.82,WSW,248,1.6,2.0,0,0.00,,,0.00,WUHU216HW,2013-09-24 15:14:00,
2013-09-24 11:19:00,62.6,0.0,29.82,SSW,203,1.8,1.8,0,0.00,,,0.00,WUHU216HW,2013-09-24 15:19:00,
2013-09-24 11:24:00,63.4,0.0,29.82,SW,225,1.8,1.8,0,0.00,,,0.00,WUHU216HW,2013-09-24 15:24:00,
2013-09-24 11:29:00,63.9,0.0,29.82,SW,225,0.4,1.8,0,0.00,,,0.00,WUHU216HW,2013-09-24 15:29:00,
2013-09-24 11:34:00,63.9,0.0,29.82,West,270,2.2,2.5,0,0.00,,,0.00,WUHU216HW,2013-09-24 15:34:00,
2013-09-24 11:39:00,64.1,0.0,29.82,SSW,203,2.0,2.5,0,0.00,,,0.00,WUHU216HW,2013-09-24 15:39:00,
2013-09-24 11:44:00,64.3,0.0,29.82,South,180,0.9,2.0,0,0.00,,,0.00,WUHU216HW,2013-09-24 15:44:00,
2013-09-24 11:49:00,64.3,0.0,29.82,East,90,1.8,1.8,0,0.00,,,0.00,WUHU216HW,2013-09-24 15:49:00,
2013-09-24 11:54:00,64.1,0.0,29.81,NW,315,0.2,2.0,0,0.00,,,0.00,WUHU216HW,2013-09-24 15:54:00,
2013-09-24 11:59:00,64.1,0.0,29.81,NW,315,0.4,2.9,0,0.00,,,0.00,WUHU216HW,2013-09-24 15:59:00,
2013-09-24 12:04:00,64.4,0.0,29.81,WSW,248,1.8,2.9,0,0.00,,,0.00,WUHU216HW,2013-09-24 16:04:00,
2013-09-24 12:09:00,65.2,0.0,29.81,NNW,338,1.3,2.5,0,0.00,,,0.00,WUHU216HW,2013-09-24 16:09:00,
2013-09-24 12:14:00,65.9,0.0,29.81,NNW,338,0.9,2.5,0,0.00,,,0.00,WUHU216HW,2013-09-24 16:14:00,
2013-09-24 12:19:00,65.9,0.0,29.81,South,180,1.8,1.8,0,0.00,,,0.00,WUHU216HW,2013-09-24 16:19:00,
2013-09-24 12:24:00,66.6,0.0,29.80,NE,45,2.0,2.0,0,0.00,,,0.00,WUHU216HW,2013-09-24 16:24:00,
2013-09-24 12:29:00,66.1,0.0,29.80,South,180,1.8,2.0,0,0.00,,,0.00,WUHU216HW,2013-09-24 16:29:00,
2013-09-24 12:34:00,66.2,0.0,29.81,WSW,248,1.6,2.5,0,0.00,,,0.00,WUHU216HW,2013-09-24 16:34:00,
2013-09-24 12:39:00,66.4,0.0,29.80,WSW,248,0.7,2.5,0,0.00,,,0.00,WUHU216HW,2013-09-24 16:39:00,
2013-09-24 12:44:00,67.1,0.0,29.80,WNW,293,0.4,2.5,0,0.00,,,0.00,WUHU216HW,2013-09-24 16:44:00,
2013-09-24 12:49:00,67.0,0.0,29.79,NE,45,0.4,2.5,0,0.00,,,0.00,WUHU216HW,2013-09-24 16:49:00,
2013-09-24 12:54:00,67.5,0.0,29.79,West,270,0.0,2.2,0,0.00,,,0.00,WUHU216HW,2013-09-24 16:54:00,
2013-09-24 12:59:00,67.9,0.0,29.79,West,270,1.1,2.2,0,0.00,,,0.00,WUHU216HW,2013-09-24 16:59:00,
2013-09-24 13:04:00,68.2,0.0,29.79,West,270,1.3,1.3,0,0.00,,,0.00,WUHU216HW,2013-09-24 17:04:00,
2013-09-24 13:09:00,68.8,0.0,29.78,North,0,1.1,1.3,0,0.00,,,0.00,WUHU216HW,2013-09-24 17:09:00,
2013-09-24 13:14:00,68.9,0.0,29.78,NNW,338,0.4,1.3,0,0.00,,,0.00,WUHU216HW,2013-09-24 17:14:00,
2013-09-24 13:19:00,68.8,0.0,29.77,SSE,158,2.7,2.7,0,0.00,,,0.00,WUHU216HW,2013-09-24 17:19:00,
2013-09-24 13:24:00,69.1,0.0,29.77,West,270,0.4,2.7,0,0.00,,,0.00,WUHU216HW,2013-09-24 17:24:00,
2013-09-24 13:29:00,68.9,0.0,29.77,NNW,338,1.1,2.5,0,0.00,,,0.00,WUHU216HW,2013-09-24 17:29:00,
2013-09-24 13:34:00,68.6,0.0,29.77,NNW,338,0.7,2.5,0,0.00,,,0.00,WUHU216HW,2013-09-24 17:34:00,
2013-09-24 13:39:00,68.8,0.0,29.77,ESE,113,1.8,1.8,0,0.00,,,0.00,WUHU216HW,2013-09-24 17:39:00,
2013-09-24 13:44:00,69.7,0.0,29.77,NNW,338,2.2,2.2,0,0.00,,,0.00,WUHU216HW,2013-09-24 17:44:00,
2013-09-24 13:49:00,69.5,0.0,29.76,NNE,23,0.2,3.1,0,0.00,,,0.00,WUHU216HW,2013-09-24 17:49:00,
2013-09-24 13:54:00,69.5,0.0,29.75,NE,45,1.1,3.8,0,0.00,,,0.00,WUHU216HW,2013-09-24 17:54:00,
2013-09-24 13:59:00,69.1,0.0,29.76,WSW,248,1.3,3.8,0,0.00,,,0.00,WUHU216HW,2013-09-24 17:59:00,
2013-09-24 14:04:00,69.5,0.0,29.76,WSW,248,1.3,2.9,0,0.00,,,0.00,WUHU216HW,2013-09-24 18:04:00,
2013-09-24 14:09:00,70.0,0.0,29.76,SW,225,0.4,2.9,0,0.00,,,0.00,WUHU216HW,2013-09-24 18:09:00,
2013-09-24 14:14:00,69.8,0.0,29.75,SSW,203,1.3,4.0,0,0.00,,,0.00,WUHU216HW,2013-09-24 18:14:00,
2013-09-24 14:19:00,69.8,0.0,29.75,NW,315,3.4,4.0,0,0.00,,,0.00,WUHU216HW,2013-09-24 18:19:00,
2013-09-24 14:24:00,70.0,0.0,29.75,ENE,68,1.1,3.4,0,0.00,,,0.00,WUHU216HW,2013-09-24 18:24:00,
2013-09-24 14:29:00,70.0,0.0,29.75,North,0,0.0,3.4,0,0.00,,,0.00,WUHU216HW,2013-09-24 18:29:00,
2013-09-24 14:34:00,70.2,0.0,29.76,NNE,23,1.8,2.9,0,0.00,,,0.00,WUHU216HW,2013-09-24 18:34:00,
2013-09-24 14:39:00,69.8,0.0,29.75,NNE,23,2.5,2.5,0,0.00,,,0.00,WUHU216HW,2013-09-24 18:39:00,
2013-09-24 14:44:00,69.7,0.0,29.75,ESE,113,0.7,2.5,0,0.00,,,0.00,WUHU216HW,2013-09-24 18:44:00,
2013-09-24 14:49:00,69.5,0.0,29.75,NW,315,1.8,2.5,0,0.00,,,0.00,WUHU216HW,2013-09-24 18:49:00,
2013-09-24 14:54:00,69.1,0.0,29.75,WNW,293,0.2,2.5,0,0.00,,,0.00,WUHU216HW,2013-09-24 18:54:00,
2013-09-24 14:59:00,69.1,0.0,29.75,NNW,338,1.1,3.6,0,0.00,,,0.00,WUHU216HW,2013-09-24 18:59:00,
2013-09-24 15:04:00,68.9,0.0,29.75,WNW,293,0.7,3.6,0,0.00,,,0.00,WUHU216HW,2013-09-24 19:04:00,
2013-09-24 15:09:00,68.8,0.0,29.75,WNW,293,1.1,2.5,0,0.00,,,0.00,WUHU216HW,2013-09-24 19:09:00,
2013-09-24 15:14:00,68.4,0.0,29.75,North,0,3.1,3.1,0,0.00,,,0.00,WUHU216HW,2013-09-24 19:14:00,
2013-09-24 15:19:00,68.0,0.0,29.74,North,0,1.1,3.4,0,0.00,,,0.00,WUHU216HW,2013-09-24 19:19:00,
2013-09-24 15:24:00,68.0,0.0,29.74,SE,135,1.3,3.4,0,0.00,,,0.00,WUHU216HW,2013-09-24 19:24:00,
2013-09-24 15:29:00,68.0,0.0,29.74,NNE,23,1.3,2.0,0,0.00,,,0.00,WUHU216HW,2013-09-24 19:29:00,
2013-09-24 15:34:00,67.7,0.0,29.74,NW,315,0.9,2.0,0,0.00,,,0.00,WUHU216HW,2013-09-24 19:34:00,
2013-09-24 15:39:00,67.9,0.0,29.74,West,270,0.9,0.9,0,0.00,,,0.00,WUHU216HW,2013-09-24 19:39:00,
2013-09-24 15:44:00,67.5,0.0,29.74,West,270,0.4,4.0,0,0.00,,,0.00,WUHU216HW,2013-09-24 19:44:00,
2013-09-24 15:49:00,67.3,0.0,29.74,SE,135,0.7,4.0,0,0.00,,,0.00,WUHU216HW,2013-09-24 19:49:00,
2013-09-24 15:54:00,67.0,0.0,29.74,SE,135,0.0,1.1,0,0.00,,,0.00,WUHU216HW,2013-09-24 19:54:00,
2013-09-24 15:59:00,67.0,0.0,29.74,ESE,113,1.6,1.6,0,0.00,,,0.00,WUHU216HW,2013-09-24 19:59:00,
2013-09-24 16:04:00,66.8,0.0,29.74,North,0,0.9,2.2,0,0.00,,,0.00,WUHU216HW,2013-09-24 20:04:00,
2013-09-24 16:09:00,66.6,0.0,29.74,ENE,68,0.9,2.2,0,0.00,,,0.00,WUHU216HW,2013-09-24 20:09:00,
2013-09-24 16:14:00,66.6,0.0,29.74,North,0,0.9,1.1,0,0.00,,,0.00,WUHU216HW,2013-09-24 20:14:00,
2013-09-24 16:19:00,66.4,0.0,29.74,North,0,0.2,1.1,0,0.00,,,0.00,WUHU216HW,2013-09-24 20:19:00,
2013-09-24 16:24:00,66.2,0.0,29.74,North,0,0.7,2.2,0,0.00,,,0.00,WUHU216HW,2013-09-24 20:24:00,
2013-09-24 16:29:00,66.2,0.0,29.74,NNE,23,1.1,2.2,0,0.00,,,0.00,WUHU216HW,2013-09-24 20:29:00,
2013-09-24 16:34:00,66.1,0.0,29.74,NW,315,1.6,1.6,0,0.00,,,0.00,WUHU216HW,2013-09-24 20:34:00,
2013-09-24 16:39:00,65.9,0.0,29.74,WSW,248,2.0,2.0,0,0.00,,,0.00,WUHU216HW,2013-09-24 20:39:00,
2013-09-24 16:44:00,65.7,0.0,29.74,NNE,23,0.2,2.0,0,0.00,,,0.00,WUHU216HW,2013-09-24 20:44:00,
2013-09-24 16:49:00,65.5,0.0,29.74,WNW,293,0.4,2.0,0,0.00,,,0.00,WUHU216HW,2013-09-24 20:49:00,
2013-09-24 16:54:00,65.3,0.0,29.74,NE,45,1.1,1.1,0,0.00,,,0.00,WUHU216HW,2013-09-24 20:54:00,
2013-09-24 16:59:00,65.2,0.0,29.73,NNE,23,1.8,1.8,0,0.00,,,0.00,WUHU216HW,2013-09-24 20:59:00,
2013-09-24 17:05:00,65.2,0.0,29.73,WNW,293,0.7,1.8,0,0.00,,,0.00,WUHU216HW,2013-09-24 21:05:00,
2013-09-24 17:10:00,64.8,0.0,29.74,ENE,68,0.4,1.8,0,0.00,,,0.00,WUHU216HW,2013-09-24 21:10:00,
2013-09-24 17:15:00,64.8,0.0,29.74,NE,45,0.4,1.8,0,0.00,,,0.00,WUHU216HW,2013-09-24 21:15:00,
2013-09-24 17:20:00,64.4,0.0,29.73,NW,315,0.4,0.4,0,0.00,,,0.00,WUHU216HW,2013-09-24 21:20:00,
2013-09-24 17:25:00,64.3,0.0,29.74,NW,315,0.0,0.4,0,0.00,,,0.00,WUHU216HW,2013-09-24 21:25:00,
2013-09-24 17:30:00,63.7,0.0,29.73,NNW,338,0.7,0.7,0,0.00,,,0.00,WUHU216HW,2013-09-24 21:30:00,
2013-09-24 17:35:00,63.4,0.0,29.73,NNW,338,0.0,0.7,0,0.00,,,0.00,WUHU216HW,2013-09-24 21:35:00,
2013-09-24 17:40:00,63.2,0.0,29.73,North,0,0.0,0.0,0,0.00,,,0.00,WUHU216HW,2013-09-24 21:40:00,
2013-09-24 17:45:00,63.0,0.0,29.73,North,0,0.2,0.7,0,0.00,,,0.00,WUHU216HW,2013-09-24 21:45:00,
2013-09-24 17:50:00,62.6,0.0,29.73,North,0,0.4,0.7,0,0.00,,,0.00,WUHU216HW,2013-09-24 21:50:00,
2013-09-24 17:55:00,62.5,0.0,29.73,North,0,0.4,0.4,0,0.00,,,0.00,WUHU216HW,2013-09-24 21:55:00,
2013-09-24 18:00:00,61.7,0.0,29.74,North,0,0.7,1.1,0,0.00,,,0.00,WUHU216HW,2013-09-24 22:00:00,
2013-09-24 18:05:00,61.6,0.0,29.73,North,0,0.9,1.1,0,0.00,,,0.00,WUHU216HW,2013-09-24 22:05:00,
2013-09-24 18:10:00,60.8,0.0,29.73,North,0,0.0,1.1,0,0.00,,,0.00,WUHU216HW,2013-09-24 22:10:00,
2013-09-24 18:15:00,60.5,0.0,29.73,North,0,0.0,0.0,0,0.00,,,0.00,WUHU216HW,2013-09-24 22:15:00,
2013-09-24 18:20:00,59.8,0.0,29.73,North,0,0.0,0.0,0,0.00,,,0.00,WUHU216HW,2013-09-24 22:20:00,
2013-09-24 18:25:00,59.4,0.0,29.73,North,0,0.0,0.0,0,0.00,,,0.00,WUHU216HW,2013-09-24 22:25:00,
2013-09-24 18:30:00,58.5,0.0,29.73,North,0,0.0,0.0,0,0.00,,,0.00,WUHU216HW,2013-09-24 22:30:00,
2013-09-24 18:35:00,58.0,0.0,29.74,North,0,0.0,0.0,0,0.00,,,0.00,WUHU216HW,2013-09-24 22:35:00,
2013-09-24 18:40:00,57.4,0.0,29.74,North,0,0.0,0.0,0,0.00,,,0.00,WUHU216HW,2013-09-24 22:40:00,
2013-09-24 18:45:00,57.1,0.0,29.74,North,0,0.0,0.0,0,0.00,,,0.00,WUHU216HW,2013-09-24 22:45:00,
2013-09-24 18:50:00,56.3,0.0,29.74,North,0,0.0,0.0,0,0.00,,,0.00,WUHU216HW,2013-09-24 22:50:00,
2013-09-24 18:55:00,55.8,0.0,29.74,North,0,0.0,0.0,0,0.00,,,0.00,WUHU216HW,2013-09-24 22:55:00,
2013-09-24 19:00:00,55.4,0.0,29.74,North,0,0.0,0.0,0,0.00,,,0.00,WUHU216HW,2013-09-24 23:00:00,
2013-09-24 19:06:00,54.5,0.0,29.74,North,0,0.0,0.0,0,0.00,,,0.00,WUHU216HW,2013-09-24 23:06:00,
2013-09-24 19:11:00,54.2,0.0,29.74,North,0,0.0,0.0,0,0.00,,,0.00,WUHU216HW,2013-09-24 23:11:00,
2013-09-24 19:16:00,53.3,0.0,29.74,North,0,0.0,0.0,0,0.00,,,0.00,WUHU216HW,2013-09-24 23:16:00,
2013-09-24 19:21:00,52.9,0.0,29.74,North,0,0.0,0.0,0,0.00,,,0.00,WUHU216HW,2013-09-24 23:21:00,
2013-09-24 19:26:00,52.4,0.0,29.74,North,0,0.0,0.0,0,0.00,,,0.00,WUHU216HW,2013-09-24 23:26:00,
2013-09-24 19:31:00,51.8,0.0,29.74,North,0,0.0,0.0,0,0.00,,,0.00,WUHU216HW,2013-09-24 23:31:00,
2013-09-24 19:36:00,51.5,0.0,29.74,North,0,0.0,0.0,0,0.00,,,0.00,WUHU216HW,2013-09-24 23:36:00,
2013-09-24 19:41:00,50.9,0.0,29.74,North,0,0.0,0.0,0,0.00,,,0.00,WUHU216HW,2013-09-24 23:41:00,
2013-09-24 19:46:00,50.6,0.0,29.74,North,0,0.0,0.0,0,0.00,,,0.00,WUHU216HW,2013-09-24 23:46:00,
2013-09-24 19:51:00,50.0,0.0,29.74,North,0,0.0,0.0,0,0.00,,,0.00,WUHU216HW,2013-09-24 23:51:00,
2013-09-24 19:56:00,49.9,0.0,29.74,North,0,0.0,0.0,0,0.00,,,0.00,WUHU216HW,2013-09-24 23:56:00,
2013-09-24 20:01:00,49.3,0.0,29.74,North,0,0.0,0.0,0,0.00,,,0.00,WUHU216HW,2013-09-25 00:01:00,
2013-09-24 20:06:00,49.3,0.0,29.74,North,0,0.0,0.4,0,0.00,,,0.00,WUHU216HW,2013-09-25 00:06:00,
2013-09-24 20:11:00,49.0,0.0,29.74,North,0,0.0,0.4,0,0.00,,,0.00,WUHU216HW,2013-09-25 00:11:00,
2013-09-24 20:16:00,48.6,0.0,29.75,North,0,0.0,0.0,0,0.00,,,0.00,WUHU216HW,2013-09-25 00:16:00,
2013-09-24 20:21:00,48.4,0.0,29.75,North,0,0.0,0.0,0,0.00,,,0.00,WUHU216HW,2013-09-25 00:21:00,
2013-09-24 20:26:00,48.4,0.0,29.75,North,0,0.0,0.0,0,0.00,,,0.00,WUHU216HW,2013-09-25 00:26:00,
2013-09-24 20:31:00,48.2,0.0,29.76,North,0,0.0,0.0,0,0.00,,,0.00,WUHU216HW,2013-09-25 00:31:00,
2013-09-24 20:36:00,48.1,0.0,29.76,North,0,0.0,0.0,0,0.00,,,0.00,WUHU216HW,2013-09-25 00:36:00,
2013-09-24 20:41:00,47.9,0.0,29.76,North,0,0.0,0.0,0,0.00,,,0.00,WUHU216HW,2013-09-25 00:41:00,
2013-09-24 20:46:00,47.7,0.0,29.76,North,0,0.0,0.0,0,0.00,,,0.00,WUHU216HW,2013-09-25 00:46:00,
2013-09-24 20:51:00,47.5,0.0,29.76,North,0,0.0,0.0,0,0.00,,,0.00,WUHU216HW,2013-09-25 00:51:00,
2013-09-24 20:57:00,47.3,0.0,29.76,North,0,0.0,0.0,0,0.00,,,0.00,WUHU216HW,2013-09-25 00:57:00,
2013-09-24 21:02:00,47.2,0.0,29.76,North,0,0.7,0.7,0,0.00,,,0.00,WUHU216HW,2013-09-25 01:02:00,
2013-09-24 21:07:00,47.2,0.0,29.76,North,0,0.0,0.7,0,0.00,,,0.00,WUHU216HW,2013-09-25 01:07:00,
2013-09-24 21:12:00,47.2,0.0,29.77,North,0,0.0,0.4,0,0.00,,,0.00,WUHU216HW,2013-09-25 01:12:00,
2013-09-24 21:17:00,47.0,0.0,29.77,North,0,0.0,0.0,0,0.00,,,0.00,WUHU216HW,2013-09-25 01:17:00,
2013-09-24 21:22:00,46.8,0.0,29.77,North,0,0.0,0.0,0,0.00,,,0.00,WUHU216HW,2013-09-25 01:22:00,
2013-09-24 21:27:00,46.4,0.0,29.77,North,0,0.0,0.0,0,0.00,,,0.00,WUHU216HW,2013-09-25 01:27:00,
2013-09-24 21:32:00,46.4,0.0,29.77,North,0,0.0,0.4,0,0.00,,,0.00,WUHU216HW,2013-09-25 01:32:00,
2013-09-24 21:37:00,46.4,0.0,29.78,North,0,0.0,0.4,0,0.00,,,0.00,WUHU216HW,2013-09-25 01:37:00,
2013-09-24 21:42:00,46.1,0.0,29.78,North,0,0.0,0.0,0,0.00,,,0.00,WUHU216HW,2013-09-25 01:42:00,
2013-09-24 21:47:00,46.1,0.0,29.78,North,0,0.0,0.0,0,0.00,,,0.00,WUHU216HW,2013-09-25 01:47:00,
2013-09-24 21:52:00,45.7,0.0,29.78,North,0,0.4,0.4,0,0.00,,,0.00,WUHU216HW,2013-09-25 01:52:00,
2013-09-24 21:57:00,45.5,0.0,29.79,North,0,0.0,0.7,0,0.00,,,0.00,WUHU216HW,2013-09-25 01:57:00,
2013-09-24 22:02:00,45.4,0.0,29.79,North,0,0.0,0.7,0,0.00,,,0.00,WUHU216HW,2013-09-25 02:02:00,
2013-09-24 22:07:00,45.2,0.0,29.79,North,0,0.0,0.2,0,0.00,,,0.00,WUHU216HW,2013-09-25 02:07:00,
2013-09-24 22:12:00,45.0,0.0,29.79,North,0,0.0,0.2,0,0.00,,,0.00,WUHU216HW,2013-09-25 02:12:00,
2013-09-24 22:17:00,45.0,0.0,29.79,North,0,0.0,0.0,0,0.00,,,0.00,WUHU216HW,2013-09-25 02:17:00,
2013-09-24 22:22:00,44.8,0.0,29.79,North,0,0.0,0.4,0,0.00,,,0.00,WUHU216HW,2013-09-25 02:22:00,
2013-09-24 22:27:00,44.6,0.0,29.79,North,0,0.0,0.4,0,0.00,,,0.00,WUHU216HW,2013-09-25 02:27:00,
2013-09-24 22:32:00,44.5,0.0,29.79,North,0,0.0,0.4,0,0.00,,,0.00,WUHU216HW,2013-09-25 02:32:00,
2013-09-24 22:37:00,44.5,0.0,29.79,North,0,0.4,0.4,0,0.00,,,0.00,WUHU216HW,2013-09-25 02:37:00,
2013-09-24 22:42:00,44.5,0.0,29.79,North,0,0.0,0.4,0,0.00,,,0.00,WUHU216HW,2013-09-25 02:42:00,
2013-09-24 22:47:00,44.5,0.0,29.79,North,0,0.0,0.4,0,0.00,,,0.00,WUHU216HW,2013-09-25 02:47:00,
2013-09-24 22:52:00,44.5,0.0,29.79,North,0,0.4,0.4,0,0.00,,,0.00,WUHU216HW,2013-09-25 02:52:00,
2013-09-24 22:57:00,44.3,0.0,29.79,North,0,0.4,1.1,0,0.00,,,0.00,WUHU216HW,2013-09-25 02:57:00,
2013-09-24 23:02:00,44.5,0.0,29.79,North,0,0.9,1.1,0,0.00,,,0.00,WUHU216HW,2013-09-25 03:02:00,
2013-09-24 23:07:00,44.5,0.0,29.79,North,0,0.4,0.9,0,0.00,,,0.00,WUHU216HW,2013-09-25 03:07:00,
2013-09-24 23:12:00,44.5,0.0,29.79,North,0,0.0,0.9,0,0.00,,,0.00,WUHU216HW,2013-09-25 03:12:00,
2013-09-24 23:17:00,44.3,0.0,29.79,North,0,0.0,0.4,0,0.00,,,0.00,WUHU216HW,2013-09-25 03:17:00,
2013-09-24 23:22:00,44.3,0.0,29.79,NNE,23,0.4,1.1,0,0.00,,,0.00,WUHU216HW,2013-09-25 03:22:00,
2013-09-24 23:27:00,44.3,0.0,29.79,NNE,23,0.4,1.1,0,0.00,,,0.00,WUHU216HW,2013-09-25 03:27:00,
2013-09-24 23:32:00,44.5,0.0,29.79,NNE,23,0.0,0.9,0,0.00,,,0.00,WUHU216HW,2013-09-25 03:32:00,
2013-09-24 23:37:00,44.6,0.0,29.80,NNE,23,0.0,0.9,0,0.00,,,0.00,WUHU216HW,2013-09-25 03:37:00,
2013-09-24 23:42:00,44.6,0.0,29.79,NNE,23,0.0,0.4,0,0.00,,,0.00,WUHU216HW,2013-09-25 03:42:00,
2013-09-24 23:47:00,44.6,0.0,29.80,NNE,23,0.7,0.7,0,0.00,,,0.00,WUHU216HW,2013-09-25 03:47:00,
2013-09-24 23:52:00,44.6,0.0,29.79,NW,315,1.1,1.1,0,0.00,,,0.00,WUHU216HW,2013-09-25 03:52:00,
2013-09-24 23:57:00,44.6,0.0,29.79,NW,315,0.4,1.1,0,0.00,,,0.00,WUHU216HW,2013-09-25 03:57:00,